Location: Unspecified
(0.0000°N, 0.0000°E)
Time: 20:08:37
(UTC+00:00)

Envisat - Pass Details

Date: 16 January 2018
Orbit: 764 x 766 km, 98.2° (Epoch: 17 January)

Event Time Altitude Azimuth Distance (km) Brightness Sun altitude
Rises 20:54:40 0° 196° (SSW) 3,230 6.7 -38.0°
Reaches altitude 10° 20:57:36 10° 214° (SSW) 2,301 6.0 -38.6°
Maximum altitude 21:01:05 19° 257° (WSW) 1,764 5.4 -39.4°
Enters shadow 21:01:36 19° 265° (W) 1,776 5.4 -39.5°
